Jordan, MT

10:18 PM MDT on March 24, 2017 (GMT -0600)
Jordan

Weather History for KJDN - July, 2012

Change the Weather History Date:

Friday, July 13, 2012

  Actual Average Record
Temperature  
Mean Temperature 81 °F 70 °F  
Max Temperature 102 °F 85 °F 102 °F (2002)
Min Temperature 59 °F 54 °F 41 °F (1971)
Degree Days  
Heating Degree Days 0 1  
Month to date heating degree days 0 14  
Since 1 June heating degree days 76 139  
Since 1 July heating degree days 0 14  
Cooling Degree Days 16 6  
Month to date cooling degree days 167 59  
Year to date cooling degree days 282 113  
Since 1 June cooling degree days 272 107  
Growing Degree Days 31 (Base 50)    
Moisture  
Dew Point 43 °F    
Average Humidity 32    
Maximum Humidity 52    
Minimum Humidity 11    
Precipitation  
Precipitation 0.00 in 0.06 in 0.83 in (1993)
Month to date precipitation 0.32 1.05  
Year to date precipitation 5.07 7.91  
Snow  
Snow 0.00 in - - ()
Month to date snowfall 0.0  
Since 1 June snowfall 0.0  
Since 1 July snowfall 0.0  
Snow Depth 0.00 in    
Sea Level Pressure  
Sea Level Pressure 29.90 in    
Wind  
Wind Speed 10 mph (ESE)    
Max Wind Speed 21 mph    
Max Gust Speed 35 mph    
T = Trace of Precipitation, MM = Missing Value Source: NWS Daily Summary

Daily Weather History Graph

Daily Weather History Graph

Search for Another Location

Airport or City:

Trip Planner

Search our weather history database for the weather conditions in past years. The results will help you decide how hot, cold, wet, or windy it might be!

Date:

Astronomy

Jul. 13, 2012 Rise Set
Actual Time 5:25 AM MDT 9:01 PM MDT
Civil Twilight 4:46 AM MDT 9:39 PM MDT
Nautical Twilight 3:54 AM MDT 10:31 PM MDT
Astronomical Twilight 2:43 AM MDT 11:41 PM MDT
Moon 1:09 AM MDT (7/13) 4:30 PM MDT (7/13)
Length of Visible Light 16h 53m
Length of Day
15h 36m
Waning Crescent, 26% of the Moon is Illuminated
Jul 13
Waning Crescent
Jul 18
New
Jul 26
First Quarter
Aug 1
Full
Aug 9
Last Quarter

Hourly Weather History & Observations

Time (MDT) Temp. Dew Point Humidity Pressure Visibility Wind Dir Wind Speed Gust Speed Precip Events Conditions
12:48 AM 73.0 °F 44.1 °F 35% 29.92 in - East 5.8 mph - N/A   Unknown
1:48 AM 71.1 °F 44.1 °F 38% 29.92 in - East 3.5 mph - N/A   Unknown
2:48 AM 69.1 °F 44.1 °F 40% 29.92 in - East 3.5 mph - N/A   Unknown
3:48 AM 66.9 °F 44.1 °F 44% 29.92 in - Calm Calm - N/A   Unknown
4:48 AM 64.9 °F 44.1 °F 47% 29.93 in - Calm Calm - N/A   Unknown
5:48 AM 62.1 °F 45.0 °F 53% 29.93 in - East 3.5 mph - N/A   Unknown
6:48 AM 70.0 °F 46.0 °F 42% 29.92 in - East 6.9 mph - N/A   Unknown
7:48 AM 75.9 °F 46.9 °F 36% 29.92 in - East 6.9 mph - N/A   Unknown
8:48 AM 86.0 °F 48.9 °F 28% 29.92 in - East 8.1 mph - N/A   Unknown
9:48 AM 91.0 °F 48.9 °F 23% 29.93 in - ESE 9.2 mph - N/A   Unknown
10:48 AM 96.1 °F 41.0 °F 15% 29.92 in - SE 15.0 mph 18.4 mph N/A   Unknown
11:48 AM 98.1 °F 41.0 °F 14% 29.91 in - SE 15.0 mph 20.7 mph N/A   Unknown
12:48 PM 98.1 °F 39.0 °F 13% 29.89 in - SE 9.2 mph 21.9 mph N/A   Unknown
1:48 PM 100.0 °F 39.0 °F 12% 29.88 in - ESE 15.0 mph 21.9 mph N/A   Unknown
2:48 PM 100.9 °F 37.9 °F 11% 29.88 in - ESE 17.3 mph 34.5 mph N/A   Unknown
3:48 PM 99.0 °F 37.9 °F 12% 29.89 in - SE 11.5 mph 23.0 mph N/A   Unknown
4:48 PM 99.0 °F 37.9 °F 12% 29.88 in - SE 11.5 mph 19.6 mph N/A   Unknown
5:48 PM 97.0 °F 36.0 °F 12% 29.88 in - ESE 19.6 mph 23.0 mph N/A   Unknown
6:48 PM 97.0 °F 37.9 °F 13% 29.86 in - ESE 16.1 mph 24.2 mph N/A   Unknown
7:48 PM 95.0 °F 37.0 °F 13% 29.86 in - ESE 12.7 mph - N/A   Unknown
8:48 PM 89.1 °F 43.0 °F 20% 29.87 in - ESE 9.2 mph - N/A   Unknown
9:48 PM 84.0 °F 45.0 °F 25% 29.90 in - East 9.2 mph - N/A   Unknown
10:48 PM 81.0 °F 45.0 °F 28% 29.90 in - East 9.2 mph - N/A   Unknown
11:48 PM 80.1 °F 46.9 °F 31% 29.91 in - East 11.5 mph - N/A   Unknown